www.pogodaiklimat.ru

АРХИВ ПОГОДЫ в Юкайе

Время (UTC), дата Ветер
(напр.,м/с)
 
Видим.   Явления Облачность Т
(С)
Тd
(С)
f
(%)
Тe
(С)
Тes
(С)
Комфортность

P
(гПа)

Po
(гПа)
Тmin
(С)
Tmax
(С)
R
(мм)
SD
(см)
04:56 22.02   16 км    ясно  +3.3  -5.0  54  +3  +3    1014.8  992.5  +2.8  +13.9     
05:56 22.02   16 км    ясно  +1.1  -4.4  67  0  0    1015.1  992.8         
06:56 22.02 З  16 км    ясно  +1.1  -4.4  67  -1  -1    1015.5  993.1         
07:56 22.02   16 км    ясно  0.0  -4.4  72  -1  -1    1015.9  993.5         
08:56 22.02   16 км    ясно  -1.1  -5.0  75  -2  -2    1016.6  994.1         
09:56 22.02   16 км    ясно  -1.1  -5.0  75  -2  -2    1016.8  994.5         
10:56 22.02   16 км    ясно  -1.7  -5.0  78  -3  -3    1016.9  994.5  -1.7  +3.9     
11:56 22.02   16 км    ясно  -2.2  -5.0  81  -3  -3    1017.5  995.1         
12:56 22.02   16 км    ясно  -2.8  -5.6  81  -4  -4    1018.0  995.5         
13:56 22.02   16 км    ясно  -2.8  -5.6  81  -4  -4    1018.1  995.8         
14:56 22.02   16 км    ясно  -1.1  -4.4  78  -2  -2    1019.1  996.4         
15:56 22.02   16 км    ясно  +1.1  -3.9  69  0  +2    1019.8  997.1         
16:56 22.02   16 км    ясно  +3.9  -3.9  57  +3  +8    1019.6  997.1  -2.8  +4.4     
17:56 22.02   16 км    ясно  +7.8  -7.2  34  +8  +16    1019.3  996.8         
18:56 22.02 нст  16 км    ясно  +10.0  -8.9  25  +10  +19    1019.1  996.8         
19:56 22.02 нст  16 км    ясно  +11.7  -11.1  19  +12  +22    1018.6  996.1         
20:56 22.02   16 км    ясно  +13.9  -8.3  21  +14  +26  опасность
простуды 
1018.1  995.8         
21:56 22.02   16 км    ясно  +14.4  -8.9  19  +15  +24    1018.0  995.8         
22:56 22.02 СЗ  16 км    ясно  +13.9  -6.7  23  +13  +16    1018.6  996.1  +4.4  +15.0     
23:56 22.02 З  16 км    ясно  +12.8  -4.4  30  +13  +15    1018.9  996.4         
00:56 23.02   16 км    ясно  +9.4  -1.7  46  +9  +10    1019.4  996.8         
01:56 23.02 ЮЗ  16 км    ясно  +7.8  -1.1  53  +6  +6    1020.9  998.4         
02:56 23.02   16 км    ясно  +6.1  -0.6  62  +6  +6    1022.0  999.4         
03:56 23.02   16 км    ясно  +5.0  -1.1  65  +4  +4    1022.7  1000.1         
04:56 23.02   16 км    ясно  +3.9  -1.1  70  +3  +3    1023.4  1000.8  +3.9  +13.9     
05:56 23.02   16 км    ясно  +2.8  -2.2  70  +2  +2    1023.6  1001.1         
06:56 23.02   16 км    ясно  +2.2  -1.7  75  +1  +1    1024.0  1001.4         
07:56 23.02   14 км    ясно  +1.1  -2.2  79  0  0    1024.5  1002.1         
08:56 23.02   16 км    ясно  +0.6  -2.2  81  -0  -0    1024.1  1001.7         
09:56 23.02 З  16 км    ясно  +0.6  -2.2  81  -2  -2    1024.7  1002.1         
10:56 23.02   16 км    2/0 3300 м
[средняя] 
0.0  -2.2  85  -1  -1    1024.6  1002.1  -0.6  +3.9     
11:56 23.02   16 км    5/0 3300 м
[средняя] 
0.0  -2.2  85  -1  -1    1024.9  1002.4         
12:56 23.02 В  16 км    10/0 3000 м
[средняя] 
+0.6  -2.2  81  -2  -2    1025.7  1003.1         
13:56 23.02   16 км    10/0 2700 м
[средняя] 
+1.1  -1.1  85  0  0    1026.0  1003.4         
14:56 23.02   16 км    10/0 2400 м
[средняя] 
+1.7  -1.1  82  +1  +1    1026.9  1004.1         
15:56 23.02 С  16 км    10/0 2100 м
[средняя] 
+3.9  0.0  76  +2  +2    1027.3  1004.4         
16:56 23.02 СЗ  16 км    10/8 1950 м
[средняя] 
+5.6  0.0  67  +4  +4    1026.9  1004.4  -0.6  +5.6     
17:56 23.02   16 км    10/5 1950 м
[средняя] 
+7.2  0.0  60  +7  +8    1026.7  1004.1         
18:56 23.02   16 км    10/0 2100 м
[средняя] 
+8.9  -1.1  49  +9  +12    1026.7  1004.1         
19:56 23.02   16 км    10/0 3000 м
[средняя] 
+10.0  -1.1  46  +10  +14    1025.9  1003.4         
20:56 23.02 В  16 км    ясно  +12.2  -1.1  40  +12  +22    1025.0  1002.4         
21:56 23.02   16 км    10/0 2700 м
[средняя] 
+12.2  -0.6  41  +12  +15    1024.5  1002.1         
22:56 23.02   16 км    5/0 3000 м
[средняя] 
+12.8  -0.6  40  +13  +17    1024.4  1001.7  +5.6  +13.3     
23:56 23.02 СЗ  16 км    5/0 3600 м
[средняя] 
+12.8  -1.7  37  +13  +14    1024.3  1001.7         
00:56 24.02   16 км    8/0 3600 м
[средняя] 
+11.7  +1.7  50  +12  +12    1024.2  1001.7         
01:56 24.02 В  16 км    8/0 2700 м
[средняя] 
+10.6  +2.8  58  +9  +9    1024.6  1002.1         
02:56 24.02 СЗ  16 км    ясно  +9.4  +3.3  66  +8  +8    1024.9  1002.4         
03:56 24.02 Ю  16 км    ясно  +7.8  +3.3  73  +6  +6    1025.1  1002.4         

 

Местоположение метеостанции Ukiah Municipal Airport: широта 39.1258 долгота -123.2008 высота над уровнем моря 187 м.

В архиве по умолчанию представлена погода в Юкайе за последние 1-2 суток. Обновление информации о фактической погоде в базе происходит ежечасно! Архивные данные за месяц целиком и за предыдущие месяцы Вы можете получить, выбрав интересующий диапазон дат из раскрывающегося списка и нажав кнопку "Ввод!".

Внимание! Архив погоды МЕТАР в базе сайта в настоящее время начинается c 1 января 2011 г. Нет смысла пытаться выбрать более раннюю дату.

Внимание! Время в таблицах - всемирное. Для получения местного времени необходимо прибавить поправку, которая в Юкайе равна -8 ч.

Ветер - указаны скорость ветра в м/с и направление, откуда дует ветер: С - северный, СВ - северо-восточный, В - восточный, ЮВ - юго-восточный, Ю - южный, ЮЗ - юго-западный, З - западный, СЗ - северо-западный.
Видимость - горизонтальная дальность видимости в метрах или километрах. При видимости от 1 до 10 км при отсутствии осадков обычно наблюдается дымка, при ухудшении видимости до 1 км и менее - туман. В сухую погоду видимость может ухудшаться дымом, пылью или мглою.
Атмосферные явления - указаны явления, наблюдавшиеся в указанный момент времени.
Облачность - указаны через наклонную черту верхняя и нижняя облачность в баллах и высота нижней границы облаков в метрах. Внимание: облачность, как и прочие метеорологические величины в США измеряются автоматическими метеостанциями. Указанные значения в баллах носят условный характер и показывают процент времени, в течение которого, в среднем, лазерный луч высотомера отражался от облаков обратно.
T - Температура воздуха - температура, измеренная на высоте 2 м над землей.
Td - Температура точки росы - температура, при понижении до которой содержащийся в воздухе водяной пар достигнет насыщения.
f - Относительная влажность воздуха - влажноcть воздуха, измеренная на высоте 2 м над землей.
Te - Эффективная температура - температура, которую ощущает одетый по сезону человек в тени. Характеристика душности погоды. При расчете учитывается влияние влажности воздуха и скорости ветра на теплоощущения человека.
Tes - Эффективная температура на солнце - температура, которую ощущает человек, с поправкой на солнечный нагрев. Характеристика знойности погоды. Зависит от высоты солнца над горизонтом, облачности и скорости ветра. Ночью, в пасмурную погоду, а также при ветре 12 м/с и более поправка равна нулю.
P - Атмосферное давление - приведенное к уровню моря атмосферное давление.
Po - Атмосферное давление - измеренное на уровне метеостанции атмосферное давление.
Tmin - Минимальная температура - минимум температуры воздуха на высоте 2 м над землей.
Tmax - Максимальная температура - максимум температуры воздуха на высоте 2 м над землей.
R - Количество осадков - Количество выпавших осадков за 3 или 6 часов, мм.
SD - Снежный покров - Высота снежного покрова, см.